| time (UTC) | temp F | wind direction | speed MPH | gust MPH | rain 1hr in | rain 24hr in | rain mn in | humidity % | barometer mb |
| 20260509143049 | 54 | 208 | 1.0 | 2.0 | 0.00 | 0.00 | 0.00 | 90 | 1021.9 |
| 20260509141553 | 53 | 214 | 0.0 | 1.0 | 0.00 | 0.00 | 0.00 | 91 | 1022.0 |
| 20260509140000 | 52 | 214 | 0.0 | 1.0 | 0.00 | 0.00 | 0.00 | 95 | 1022.0 |
| 20260509134507 | 50 | 214 | 1.0 | 2.0 | 0.00 | 0.00 | 0.00 | 95 | 1022.1 |
| 20260509133022 | 49 | 214 | 0.0 | 0.0 | 0.00 | 0.00 | 0.00 | 95 | 1022.1 |
| 20260509131533 | 48 | 213 | 0.0 | 0.0 | 0.00 | 0.00 | 0.00 | 95 | 1022.2 |
| 20260509130036 | 48 | 213 | 0.0 | 0.0 | 0.00 | 0.00 | 0.00 | 94 | 1022.2 |
| 20260509124603 | 48 | 214 | 0.0 | 0.0 | 0.00 | 0.00 | 0.00 | 94 | 1022.1 |
| 20260509123033 | 48 | 214 | 0.0 | 0.0 | 0.00 | 0.00 | 0.00 | 94 | 1022.1 |
| 20260509121551 | 48 | 214 | 0.0 | 0.0 | 0.00 | 0.00 | 0.00 | 93 | 1022.0 |
| 20260509120107 | 49 | 214 | 0.0 | 0.0 | 0.00 | 0.00 | 0.00 | 93 | 1022.2 |
| 20260509114541 | 49 | 214 | 0.0 | 0.0 | 0.00 | 0.00 | 0.00 | 93 | 1022.3 |
| 20260509113052 | 49 | 214 | 0.0 | 0.0 | 0.00 | 0.00 | 0.00 | 92 | 1022.3 |
| 20260509111509 | 50 | 214 | 0.0 | 1.0 | 0.00 | 0.00 | 0.00 | 92 | 1022.3 |
| 20260509110016 | 50 | 214 | 0.0 | 0.0 | 0.00 | 0.00 | 0.00 | 92 | 1022.4 |
| 20260509104535 | 50 | 214 | 0.0 | 0.0 | 0.00 | 0.00 | 0.00 | 91 | 1022.5 |
| 20260509103018 | 50 | 214 | 0.0 | 0.0 | 0.00 | 0.00 | 0.00 | 91 | 1022.4 |
| 20260509101519 | 51 | 214 | 0.0 | 0.0 | 0.00 | 0.00 | 0.00 | 89 | 1022.6 |
| 20260509100041 | 51 | 214 | 0.0 | 0.0 | 0.00 | 0.00 | 0.00 | 88 | 1022.6 |
| 20260509094538 | 52 | 214 | 0.0 | 0.0 | 0.00 | 0.00 | 0.00 | 87 | 1022.7 |
| 20260509093050 | 53 | 214 | 0.0 | 0.0 | 0.00 | 0.00 | 0.00 | 86 | 1022.8 |
| 20260509091600 | 53 | 214 | 0.0 | 0.0 | 0.00 | 0.00 | 0.00 | 86 | 1022.9 |
| 20260509091502 | 53 | 214 | 0.0 | 0.0 | 0.00 | 0.00 | 0.00 | 86 | 1022.9 |
| 20260509090016 | 53 | 214 | 0.0 | 3.0 | 0.00 | 0.00 | 0.00 | 86 | 1022.9 |
| 20260509084526 | 54 | 210 | 1.0 | 3.0 | 0.00 | 0.00 | 0.00 | 85 | 1022.9 |
| 20260509083028 | 54 | 210 | 1.0 | 3.0 | 0.00 | 0.00 | 0.00 | 85 | 1023.0 |
| 20260509081547 | 54 | 210 | 2.0 | 5.0 | 0.00 | 0.00 | 0.00 | 85 | 1022.9 |
| 20260509080059 | 54 | 219 | 2.0 | 4.0 | 0.00 | 0.00 | 0.00 | 85 | 1022.9 |
| 20260509074517 | 53 | 227 | 0.0 | 2.0 | 0.00 | 0.00 | 0.00 | 85 | 1022.8 |
| 20260509073024 | 53 | 227 | 0.0 | 3.0 | 0.00 | 0.00 | 0.00 | 85 | 1022.9 |
| 20260509071530 | 53 | 231 | 1.0 | 4.0 | 0.00 | 0.00 | 0.00 | 85 | 1022.8 |
| 20260509070033 | 53 | 210 | 2.0 | 4.0 | 0.00 | 0.00 | 0.00 | 85 | 1022.7 |
| 20260509064525 | 54 | 213 | 3.0 | 6.0 | 0.00 | 0.00 | 0.00 | 84 | 1022.6 |
| 20260509063008 | 54 | 220 | 3.0 | 7.0 | 0.00 | 0.00 | 0.00 | 85 | 1022.6 |
| 20260509061551 | 53 | 203 | 1.0 | 4.0 | 0.00 | 0.00 | 0.00 | 84 | 1022.6 |
| 20260509060108 | 53 | 226 | 1.0 | 4.0 | 0.00 | 0.00 | 0.00 | 85 | 1022.5 |
| 20260509060002 | 53 | 228 | 1.0 | 3.0 | 0.00 | 0.00 | 0.00 | 84 | 1022.5 |
| 20260509054518 | 53 | 232 | 0.0 | 2.0 | 0.00 | 0.00 | 0.00 | 83 | 1022.4 |
| 20260509053027 | 54 | 232 | 0.0 | 2.0 | 0.00 | 0.00 | 0.00 | 82 | 1022.4 |
| 20260509051533 | 54 | 232 | 0.0 | 5.0 | 0.00 | 0.00 | 0.00 | 81 | 1022.2 |
| 20260509050053 | 54 | 250 | 1.0 | 5.0 | 0.00 | 0.00 | 0.00 | 80 | 1022.1 |
| 20260509044557 | 55 | 240 | 2.0 | 7.0 | 0.00 | 0.00 | 0.00 | 79 | 1022.2 |
| 20260509043012 | 55 | 247 | 2.0 | 7.0 | 0.00 | 0.00 | 0.00 | 78 | 1022.1 |
| 20260509041547 | 55 | 231 | 3.0 | 7.0 | 0.00 | 0.00 | 0.00 | 78 | 1022.0 |
| 20260509040054 | 55 | 204 | 1.0 | 5.0 | 0.00 | 0.00 | 0.00 | 77 | 1021.9 |
| 20260509034517 | 56 | 233 | 1.0 | 9.0 | 0.00 | 0.00 | 0.00 | 75 | 1021.7 |
| 20260509033050 | 56 | 259 | 1.0 | 7.0 | 0.00 | 0.00 | 0.00 | 74 | 1021.7 |
| 20260509031509 | 56 | 234 | 1.0 | 11.0 | 0.00 | 0.00 | 0.00 | 73 | 1021.5 |
| 20260509030020 | 57 | 241 | 2.0 | 7.0 | 0.00 | 0.00 | 0.00 | 71 | 1021.4 |
| 20260509024529 | 58 | 268 | 2.0 | 7.0 | 0.00 | 0.00 | 0.00 | 69 | 1021.3 |
| 20260509023052 | 58 | 296 | 1.0 | 8.0 | 0.00 | 0.00 | 0.00 | 68 | 1021.2 |
| 20260509021525 | 59 | 242 | 3.0 | 8.0 | 0.00 | 0.00 | 0.00 | 67 | 1021.1 |
| 20260509020034 | 59 | 244 | 4.0 | 11.0 | 0.00 | 0.00 | 0.00 | 65 | 1021.1 |
| 20260509014526 | 60 | 247 | 2.0 | 9.0 | 0.00 | 0.00 | 0.00 | 63 | 1021.2 |
| 20260509013055 | 61 | 280 | 4.0 | 11.0 | 0.00 | 0.00 | 0.00 | 60 | 1021.2 |
| 20260509011550 | 62 | 238 | 3.0 | 11.0 | 0.00 | 0.00 | 0.00 | 59 | 1021.2 |
| 20260509010004 | 62 | 285 | 2.0 | 8.0 | 0.00 | 0.00 | 0.00 | 60 | 1021.3 |
| 20260509004519 | 62 | 249 | 3.0 | 10.0 | 0.00 | 0.00 | 0.00 | 59 | 1021.3 |
| 20260509003035 | 62 | 287 | 4.0 | 13.0 | 0.00 | 0.00 | 0.00 | 57 | 1021.3 |
| 20260509001552 | 63 | 245 | 5.0 | 11.0 | 0.00 | 0.00 | 0.00 | 56 | 1021.4 |
| 20260509000100 | 62 | 326 | 3.0 | 10.0 | 0.00 | 0.00 | 0.00 | 57 | 1021.2 |
| 20260509000002 | 62 | 254 | 4.0 | 10.0 | 0.00 | 0.00 | 0.00 | 58 | 1021.3 |
| 20260508234544 | 61 | 251 | 3.0 | 12.0 | 0.00 | 0.00 | 0.00 | 59 | 1021.2 |
| 20260508233059 | 62 | 283 | 3.0 | 11.0 | 0.00 | 0.00 | 0.00 | 57 | 1021.1 |
| 20260508231534 | 63 | 258 | 4.0 | 10.0 | 0.00 | 0.00 | 0.00 | 57 | 1021.0 |
| 20260508230057 | 62 | 239 | 5.0 | 14.0 | 0.00 | 0.00 | 0.00 | 55 | 1021.1 |
| 20260508224517 | 61 | 225 | 4.0 | 12.0 | 0.00 | 0.00 | 0.00 | 58 | 1021.1 |
| 20260508223031 | 62 | 254 | 4.0 | 12.0 | 0.00 | 0.00 | 0.00 | 57 | 1021.2 |
| 20260508221530 | 62 | 239 | 4.0 | 10.0 | 0.00 | 0.00 | 0.00 | 57 | 1021.3 |
| 20260508220041 | 61 | 310 | 2.0 | 8.0 | 0.00 | 0.00 | 0.00 | 60 | 1021.1 |
| 20260508214520 | 60 | 231 | 3.0 | 10.0 | 0.00 | 0.00 | 0.00 | 61 | 1021.3 |
| 20260508213029 | 60 | 218 | 5.0 | 14.0 | 0.00 | 0.00 | 0.00 | 58 | 1021.2 |
| 20260508211516 | 59 | 289 | 5.0 | 12.0 | 0.00 | 0.00 | 0.00 | 60 | 1021.2 |
| 20260508210028 | 59 | 212 | 4.0 | 10.0 | 0.00 | 0.00 | 0.00 | 60 | 1021.1 |
| 20260508204518 | 58 | 199 | 4.0 | 11.0 | 0.00 | 0.00 | 0.00 | 61 | 1021.1 |
| 20260508203026 | 58 | 214 | 6.0 | 14.0 | 0.00 | 0.00 | 0.00 | 62 | 1020.9 |
| 20260508201540 | 57 | 204 | 6.0 | 15.0 | 0.00 | 0.00 | 0.00 | 63 | 1020.9 |
| 20260508200030 | 56 | 220 | 4.0 | 15.0 | 0.00 | 0.00 | 0.00 | 64 | 1021.0 |
| 20260508194541 | 56 | 195 | 6.0 | 15.0 | 0.00 | 0.00 | 0.00 | 64 | 1020.9 |
| 20260508193108 | 57 | 199 | 6.0 | 13.0 | 0.00 | 0.00 | 0.00 | 63 | 1020.9 |
| 20260508191543 | 56 | 170 | 7.0 | 14.0 | 0.00 | 0.00 | 0.00 | 64 | 1020.9 |
| 20260508190050 | 54 | 250 | 6.0 | 14.0 | 0.00 | 0.00 | 0.00 | 67 | 1020.9 |
| 20260508184635 | 54 | 258 | 5.0 | 17.0 | 0.00 | 0.00 | 0.00 | 68 | 1020.8 |
| 20260508184502 | 54 | 214 | 6.0 | 17.0 | 0.00 | 0.00 | 0.00 | 68 | 1020.8 |
| 20260508183016 | 53 | 224 | 7.0 | 17.0 | 0.00 | 0.00 | 0.00 | 69 | 1021.0 |
| 20260508181526 | 53 | 243 | 4.0 | 15.0 | 0.00 | 0.00 | 0.00 | 69 | 1020.8 |
| 20260508180032 | 54 | 256 | 7.0 | 15.0 | 0.00 | 0.00 | 0.00 | 68 | 1020.3 |
| 20260508174556 | 54 | 210 | 8.0 | 16.0 | 0.00 | 0.00 | 0.00 | 69 | 1020.2 |
| 20260508173054 | 54 | 241 | 7.0 | 12.0 | 0.00 | 0.00 | 0.00 | 70 | 1020.1 |
| 20260508171534 | 53 | 260 | 5.0 | 15.0 | 0.00 | 0.00 | 0.00 | 73 | 1019.8 |
| 20260508170042 | 54 | 214 | 5.0 | 11.0 | 0.00 | 0.00 | 0.00 | 74 | 1019.6 |
| 20260508164533 | 53 | 177 | 5.0 | 15.0 | 0.00 | 0.00 | 0.00 | 75 | 1019.4 |
| 20260508163039 | 52 | 220 | 4.0 | 8.0 | 0.00 | 0.00 | 0.00 | 76 | 1019.4 |
| 20260508161600 | 52 | 201 | 4.0 | 9.0 | 0.00 | 0.00 | 0.00 | 77 | 1019.3 |
| 20260508160007 | 52 | 186 | 1.0 | 7.0 | 0.00 | 0.00 | 0.00 | 79 | 1019.2 |
| 20260508154523 | 51 | 201 | 4.0 | 7.0 | 0.00 | 0.00 | 0.00 | 80 | 1019.3 |
| 20260508153039 | 51 | 212 | 4.0 | 9.0 | 0.00 | 0.00 | 0.00 | 80 | 1019.4 |
| 20260508151552 | 50 | 214 | 3.0 | 10.0 | 0.00 | 0.00 | 0.00 | 82 | 1019.4 |
| 20260508150051 | 50 | 188 | 2.0 | 8.0 | 0.00 | 0.00 | 0.00 | 85 | 1019.5 |
| 20260508144510 | 50 | 184 | 2.0 | 7.0 | 0.00 | 0.00 | 0.00 | 86 | 1019.4 |